Weather observations for the past three days for
Monterey Regional Airport
Imperial (Metric)
Date Time (pdt) Wind (mph) Vis. (mi.) Weather Sky Cond. Temperature (ºF) Relative Humidity Wind Chill (°F) Heat Index (°F) Pressure Precipitation (in)
Air Dwpt 6 hour altimeter (in) sea level (mb) 1 hr 3 hr 6 hr
Max. Min.
17 07:54 Calm 7.00 Overcast OVC009 55.9 51.1 84% 30.05 1018.7
17 06:54 Calm 10.00 A Few Clouds FEW006 54 50 87% 30.04 1018.3
17 05:54 SW 3 10.00 Mostly Cloudy BKN007 55 51.1 87% 30.03 1017.9
17 04:54 Calm 10.00 Fair CLR 55 52 60.1 55 90% 30.02 1017.7
17 03:54 Calm 10.00 Overcast OVC009 57 53.1 87% 30.02 1017.6
17 02:54 W 3 10.00 Overcast BKN010 OVC014 57 52 83% 30.03 1017.9
17 01:54 W 6 10.00 NULL NULL 57 52 83% 30.03 1018.1
16 22:54 W 5 10.00 Mostly Cloudy BKN015 59 52 68 57.9 78% 30.05 1018.7
16 21:54 W 3 10.00 Fair CLR 59 51.1 75% 30.05 1018.7
16 20:54 W 6 10.00 Fair CLR 60.1 51.1 72% 30.05 1018.6
16 19:54 W 9 10.00 Fair CLR 62.1 52 70% 30.04 1018.5
16 18:54 NW 12 10.00 Fair CLR 63 51.1 65% 30.03 1018.1
16 17:54 NW 13 10.00 Fair CLR 64.9 51.1 61% 30.03 1018.1
16 16:54 W 10 10.00 Fair CLR 66.9 52 69.1 62.1 59% 30.04 1018.3
16 15:54 W 9 G 25 10.00 Fair CLR 68 52 57% 30.05 1018.6
16 14:54 SW 9 10.00 Fair CLR 66.9 53.1 61% 30.06 1018.8
16 13:54 NW 13 10.00 Fair CLR 66.9 52 59% 30.06 1019.2
16 12:54 NW 9 10.00 A Few Clouds FEW023 64.9 52 63% 30.07 1019.2
16 11:54 N 9 10.00 Mostly Cloudy BKN022 64.9 52 63% 30.07 1019.4
16 10:54 N 8 10.00 Mostly Cloudy BKN018 64 52 64 53.1 65% 30.06 1019.0
16 09:54 Vrbl 5 10.00 Overcast OVC017 62.1 53.1 73% 30.05 1018.8
16 08:54 N 5 10.00 Overcast OVC016 60.1 53.1 78% 30.05 1018.8
16 07:54 Calm 10.00 Overcast OVC017 60.1 53.1 78% 30.05 1018.6
16 06:54 Calm 10.00 Overcast OVC017 57 51.1 81% 30.04 1018.5
16 05:54 Calm 10.00 Overcast OVC020 55 50 83% 30.03 1018.1
16 04:54 Calm 10.00 Fair CLR 53.1 48.9 59 53.1 86% 30.02 1017.6
16 03:54 Calm 10.00 Fair CLR 53.1 48.9 86% 30.02 1017.6
16 02:54 Calm 10.00 Fair CLR 55.9 51.1 84% 30.02 1017.6
16 01:54 E 3 10.00 Fair CLR 55 50 83% 30.01 1017.5
15 23:54 SE 3 10.00 Fair CLR 57 51.1 81% 30.03 1018.1
15 22:54 Calm 10.00 Fair CLR 59 51.1 66.9 59 75% 30.03 1018.2
15 21:54 SW 5 10.00 Fair CLR 60.1 51.1 72% 30.04 1018.3
15 20:54 W 5 10.00 Fair CLR 61 51.1 70% 30.02 1017.8
15 19:54 W 7 10.00 Fair CLR 63 52 68% 30.02 1017.7
15 18:54 W 9 10.00 Fair CLR 64.9 52 63% 30.02 1017.6
15 17:54 SW 8 10.00 Fair CLR 64.9 52 63% 30.02 1017.8
15 16:54 W 12 10.00 Fair CLR 66.9 52 68 59 59% 30.03 1017.8
15 15:54 NW 8 G 20 10.00 Fair CLR 66 53.1 63% 30.04 1018.3
15 14:54 N 12 10.00 Fair CLR 64.9 52 63% 30.05 1018.8
15 13:54 NW 8 10.00 A Few Clouds FEW020 66 53.1 63% 30.07 1019.6
15 12:54 N 12 10.00 Overcast OVC019 64 52 65% 30.09 1020.1
15 11:54 SW 5 10.00 Overcast OVC013 61 53.1 75% 30.1 1020.6
15 10:54 W 7 10.00 Overcast OVC009 59 53.1 59 55.9 81% 30.11 1020.8
15 09:54 NW 3 10.00 Overcast OVC007 57.9 53.1 84% 30.11 1020.7
15 08:54 Calm 10.00 Overcast OVC006 57 54 90% 30.11 1020.8
15 07:54 Calm 10.00 Overcast OVC007 55.9 54 93% 30.1 1020.5
15 06:54 Calm 5.00 Fog/Mist OVC004 55.9 54 93% 30.09 1020.1
15 05:54 SE 3 10.00 Overcast OVC005 55.9 54 93% 30.08 1019.8
15 04:54 Calm 10.00 Overcast OVC006 55.9 53.1 57.9 55.9 90% 30.07 1019.6
15 03:54 Calm 10.00 Overcast OVC005 55.9 54 93% 30.07 1019.4
15 02:54 SW 3 10.00 Overcast OVC005 55.9 53.1 90% 30.07 1019.4
15 01:54 S 6 10.00 Overcast OVC007 55.9 53.1 90% 30.07 1019.4
15 00:54 Calm 10.00 Overcast OVC008 57 53.1 87% 30.07 1019.3
14 23:54 SW 3 10.00 Overcast OVC009 57 53.1 87% 30.07 1019.3
14 22:54 Calm 10.00 Overcast OVC009 57 53.1 63 57 87% 30.07 1019.4
14 21:54 SW 5 10.00 Overcast OVC008 57.9 53.1 84% 30.07 1019.4
14 20:54 SW 7 10.00 Overcast OVC008 57 53.1 87% 30.06 1019.0
14 19:54 SW 6 10.00 Overcast OVC009 57.9 53.1 84% 30.05 1018.8
14 18:54 W 9 10.00 Overcast OVC008 59 54 83% 30.04 1018.5
14 17:54 W 12 G 18 10.00 Overcast OVC009 60.1 55 84% 30.04 1018.4
14 16:54 W 9 10.00 Mostly Cloudy SCT007 BKN011 62.1 55 64 59 78% 30.04 1018.5
14 15:54 W 14 10.00 Mostly Cloudy SCT007 BKN011 63 55 76% 30.05 1018.8
14 14:54 W 12 10.00 Mostly Cloudy SCT007 BKN011 62.1 55.9 80% 30.07 1019.4
14 13:54 W 9 10.00 Mostly Cloudy SCT006 BKN011 63 55 76% 30.08 1019.6
14 12:54 Vrbl 5 10.00 Overcast OVC011 64 55.9 75% 30.08 1019.8
14 11:54 N 6 10.00 Mostly Cloudy BKN011 62.1 55 78% 30.09 1020.1
14 10:54 NW 3 10.00 Overcast OVC008 59 54 60.1 55 83% 30.09 1020.1
14 09:54 Vrbl 5 10.00 Overcast OVC007 57.9 54 87% 30.09 1020.0
14 08:54 E 3 10.00 Overcast OVC004 57 54 90% 30.09 1020.0
Date Time (pdt) Wind (mph) Vis. (mi.) Weather Sky Cond. Air Dwpt Max. Min. Relative Humidity Wind Chill (°F) Heat Index (°F) altimeter (in) sea level (mb) 1 hr 3 hr 6 hr
6 hour
Temperature (ºF) Pressure Precipitation (in)